Location: Unspecified
(0.0000°N, 0.0000°E)
Time: 16:48:16
(UTC+00:00)

Vanguard 2 Rocket - Visible Passes

Search period start: 29 July 2014 00:00
Search period end: 08 August 2014 00:00
Orbit: 553 x 3336 km, 32.9° (Epoch: 28 July)

Date Brightness Start Highest point End Pass type
(mag) Time Alt. Az. Time Alt. Az. Time Alt. Az.
29 Jul 9.8 01:47:28 26° NNE 01:47:28 26° NNE 01:53:41 10° NE visible
29 Jul 10.0 03:53:22 12° NW 04:00:31 20° NNW 04:11:37 10° NNE visible
30 Jul 10.4 00:52:20 12° NE 00:52:20 12° NE 00:53:12 10° NE visible
30 Jul 9.7 02:58:14 22° NNW 02:59:43 23° NNW 03:10:19 10° NNE visible
30 Jul 10.6 05:12:50 10° NNW 05:21:27 16° N 05:31:42 10° NE visible
31 Jul 9.8 02:03:06 23° N 02:03:06 23° N 02:09:36 10° NNE visible
31 Jul 10.3 04:12:26 10° NW 04:19:33 16° N 04:28:23 10° NNE visible
01 Aug 10.3 01:07:57 13° NNE 01:07:57 13° NNE 01:09:21 10° NE visible
01 Aug 10.0 03:13:51 13° NNW 03:18:21 16° N 03:26:11 10° NNE visible
01 Aug 10.7 05:31:46 10° NNW 05:41:00 17° N 05:51:43 10° NE visible
02 Aug 10.0 02:18:42 17° N 02:18:42 17° N 02:25:07 10° NNE visible
02 Aug 10.5 04:32:19 10° NNW 04:38:54 14° N 04:46:42 10° NNE visible
03 Aug 10.3 01:23:34 13° NNE 01:23:34 13° NNE 01:24:55 10° NNE visible
03 Aug 10.3 03:32:58 10° NNW 03:37:21 12° N 03:42:29 10° NNE visible
04 Aug 10.1 02:34:19 11° NNW 02:36:28 11° N 02:39:58 10° NNE visible
04 Aug 10.7 04:50:36 10° NNW 04:58:15 15° NNE 05:07:19 10° NE visible
05 Aug 10.3 01:39:12 10° N 01:39:12 10° N 01:39:23 10° N visible
05 Aug 10.5 03:52:49 10° N 03:56:36 11° N 04:00:50 10° NNE visible
06 Aug 10.7 05:07:27 10° NNW 05:17:13 19° NNE 05:29:03 10° ENE visible
07 Aug 10.6 04:09:59 10° N 04:15:43 13° NNE 04:22:27 10° NE visible
